ARIANE 5 DEB (SYLDA), 57215

Orbit data source: Space-Track

ARIANE 5 DEB (SYLDA), 57215 is space debris in HEO originally from a launch on Wed, 05 Jul 2023 UTC launched from the French Guiana (FRGUI). Debris objects in space refer to the collection of defunct objects orbiting the Earth. Examples of debris include non-operational satellites, rocket bodies, and fragments generated from explosions, collisions, or faulty payload assembly.

Loading next visibility...
Identifier
57215, 2023-093C
Orbit
HEO
Country
Flag of FRFR
Related business
Manufacturer
ADS/Bremen
Mission
Spacecraft
Bus & Motor
SYLDA 5, Unknown motor
Mass
440 kg wet, 440 kg dry
Launch date (UTC)
2023-07-05 (3 years ago)
Launch vehicle
Unknown
Launch site
French Guiana (FRGUI)
Object type
Payload
Rocket body
Debris
Shape & HBR
Cyl, 2.8 m
Radar Cross Section
27.391 m², Large (>1 m²)

Expand to show TLE details & history
Last TLE update: 2 days ago

TLE from 2 days ago
0 ARIANE 5 DEB (SYLDA)
1 57215U 23093C   26171.46073450  .00033995  00000-0  83282-2 0  9997
2 57215   3.0489 297.4775 6787658 117.9363 325.2461  2.92063533 27852
Epoch: 2026-06-20T11:03Z
TLE epoch observation values (Epoch: 2026-06-20T11:03:27.460Z)
Latitude
-0°
Longitude
-136.83458°
Altitude
9,914.342 km
Speed
5.445 km/s
True Right ascension
19h 50m 49s
True Declination
0° 00' 00"
Sunlit
Object was in daylight at epoch
Visualization orbit readout
Latitude
Unknown
Longitude
Unknown
Altitude
Unknown
Speed
Unknown
Apparent Right ascension
Unknown
Apparent Declination
Unknown
Sunlit
N/A
Visualization observer readout
Local Sidereal Time
21:32:57
Azimuth
Unknown
Elevation
Unknown
Doppler factor
Unknown
Orbital elements
Apogee altitude
28,337.078 km
Perigee altitude
264.668 km
Semi-major axis
20,679.01 km
Eccentricity
0.67877
Inclination
3.0489°
RAAN
297.4775°
Arg. of periapsis
117.9363°
True anomaly
242.40881°
Mean anomaly
325.2461°
Eccentric anomaly
288.32866°
Mean motion
0.72988 °/min
Orbital period
493.24 mins
BSTAR
0.0083282
Loading maneuver chart data...
Computing Atmospheric mass density...
Loading historical data...
Loading historical data...
Loading historical data...
Loading historical data...
Loading historical data...
Loading historical data...
Loading historical data...
Other satellites on launch #93 in the year 2023 (2023-07-05 UTC)

Documentation

Showing up to 5 results
|